Home > Time Zones > World Clock > Weather > Italy > Turin > Past weeks

Flag for Italy Weather past 2 weeks in Turin, Italy

Now
77 °F

Clear.


Feels Like: 79 °F
Forecast: 61 / 85 °F
Wind: 6 mph from Southeast

Location: Torino / Bric Della Croce

Current Time: Aug 30, 2015 at 10:31:15 PM

Latest Report: Aug 30, 2015 at 9:55 PM


Visibility: 10 mi

Pressure: 30.21 "Hg

Humidity: 47%

Dew point: 55 °F

Location of TurinLocation

Historic Weather in Turin — Graph

°F

Turin temperature yesterday

Maximum temperature yesterday: 81 °F (at 5:55 PM)
Minimum temperature yesterday: 72 °F (at 2:55 AM)
Average temperature yesterday: 75 °F

Past Weeks' High & Low Weather Summary

 TemperatureHumidityPressure
High81 °F (Aug 29, 5:55 PM)100% (Aug 15, 8:55 PM)30.30 "Hg (Aug 15, 8:55 PM)
Low55 °F (Aug 16, 5:55 AM)42% (Aug 30, 5:55 PM)29.80 "Hg (Aug 17, 6:55 PM)
Average67 °F80%30.05 "Hg
* Reported Aug 15 8:55 PM — Aug 30 8:55 PM, Turin, Weather by CustomWeather, © 2015

Note: Actual official high and low records may vary slightly from our data, if they occured in-between our weather recording intervals... More about our weather records

Advertising

Turin weather history for previous 24 hours

 ConditionsComfort  
Time TempWeatherWind HumidityBarometerVisibility
8:55 PM
Sun, Aug 30
79 °FSunny.5 mph48%30.18 "Hg10 mi
7:55 PM81 °FSunny.5 mph42%30.18 "Hg10 mi
6:55 PM81 °FSunny.No wind45%30.18 "Hg10 mi
5:55 PM81 °FSunny.No wind42%30.21 "Hg10 mi
4:55 PM79 °FPassing clouds.No wind48%30.21 "HgN/A
3:55 PM79 °FPassing clouds.No wind54%30.21 "HgN/A
2:55 PM79 °FPassing clouds.3 mph61%30.24 "HgN/A
1:55 PM79 °FPassing clouds.3 mph70%30.24 "HgN/A
12:55 PM77 °FPassing clouds.5 mph79%30.27 "HgN/A
11:55 AM75 °FSunny.No wind89%30.27 "Hg10 mi
10:55 AM73 °FSunny.No wind89%30.27 "Hg10 mi
9:55 AM73 °FSunny.No wind89%30.24 "Hg10 mi
8:55 AM72 °FSunny.No wind83%30.24 "Hg10 mi
7:55 AM72 °FSunny.No wind83%30.24 "Hg10 mi
6:55 AM72 °FClear.No wind83%30.24 "Hg10 mi
5:55 AM73 °FClear.No wind78%30.24 "Hg10 mi
4:55 AM73 °FClear.No wind78%30.24 "Hg10 mi
3:55 AM73 °FClear.No wind78%30.24 "Hg10 mi
2:55 AM73 °FClear.No wind78%30.27 "Hg10 mi
1:55 AM73 °FClear.No wind83%30.27 "Hg10 mi
12:55 AM75 °FClear.No wind74%30.27 "Hg10 mi
11:55 PM
Sat, Aug 29
75 °FClear.No wind69%30.27 "Hg10 mi
10:55 PM77 °FClear.No wind57%30.27 "Hg10 mi
Weather by CustomWeather, © 2015

See weather overviewHow to use our weather pages